User: anonymous   Login
Location: Walnut Point State Park
(39.6958°N, 88.0345°W)
Time: 18:06:04
(UTC-06:00)
Language:

Iridium 75 - Orbit

View from above orbital plane
View from above orbital plane
View from above satellite
View from above satellite

Ground track
Ground track

The orbit data is extracted from the following two-line orbital elements,

1 25346U 98032E   14330.51176697  .00000645  00000-0  22309-3 0   822
2 25346 086.3980 254.3280 0002128 099.0077 018.8903 14.34219926865846
Epoch (UTC): 26 November 2014 12:16:56
Eccentricity: 0.0002128
inclination: 86.3980°
perigee height: 776 km
apogee height: 779 km
right ascension of ascending node: 254.3280°
argument of perigee: 99.0077°
revolutions per day: 14.34219926
mean anomaly at epoch: 18.8903°
orbit number at epoch: 86584

The dashed part of the orbit path shows where the satellite is in the earth's shadow,  

DLR